Stations météo

réclame
Mon MeteoGroup
Schleswig, Allemagne (10035): Température de l'air & dewpoint: 12.06.2018 15:00:00 - 18.06.2018 15:00:00 (CEST)Schleswig, Allemagne (10035): Température de l'air 5cm & Température de l'air -5cm: 12.06.2018 15:00:00 - 18.06.2018 15:00:00 (CEST)Schleswig, Allemagne (10035): Température de l'air -20cm & Température de l'air -100cm: 12.06.2018 15:00:00 - 18.06.2018 15:00:00 (CEST)Schleswig, Allemagne (10035): Vitesse du vent & gusts: 12.06.2018 15:00:00 - 18.06.2018 15:00:00 (CEST)Schleswig, Allemagne (10035): Direction du vent: 12.06.2018 15:00:00 - 18.06.2018 15:00:00 (CEST)Schleswig, Allemagne (10035): reduced air pressure: 12.06.2018 15:00:00 - 18.06.2018 15:00:00 (CEST)Schleswig, Allemagne (10035): visibility: 12.06.2018 15:00:00 - 18.06.2018 15:00:00 (CEST)Schleswig, Allemagne (10035): Ensoleillement: 12.06.2018 15:00:00 - 18.06.2018 15:00:00 (CEST)Schleswig, Allemagne (10035): Quantités de précipitations: 12.06.2018 15:00:00 - 18.06.2018 15:00:00 (CEST)
Date & Time tt [°C] td [°C] tt 5cm [°C] tt -5cm [°C] tt -20cm [°C] tt -100cm [°C] ff [km/h] ff [knt] fx [km/h] fx [knt] dd ppp [hPa] vv [km] sd [min] rr [mm]
18.06.2018 15:00:00 16,7 13,8 17,0 19,5 17,7 15,9 20 11 36 19 SSW 1017,4 8 0 0,0
18.06.2018 14:00:00 16,5 13,8 17,0 20,0 17,6 15,9 20 11 39 21 SW 1017,4 9 1 0,0
18.06.2018 13:00:00 17,0 13,1 17,9 18,6 17,4 15,9 15 8 35 19 SSW 1017,4 22 0 0,0
18.06.2018 12:00:00 17,1 12,1 17,8 19,0 17,2 15,9 14 8 32 18 SW 1017,2 25 0 0,0
18.06.2018 11:00:00 17,5 12,0 18,2 19,9 16,8 15,9 22 12 37 20 SSW 1017,0 25 29 0,0
18.06.2018 10:00:00 16,9 12,6 18,6 18,5 16,7 15,9 19 11 34 18 SSW 1017,3 18 22 0,0
18.06.2018 09:00:00 15,5 12,4 16,3 16,5 16,6 15,9 16 8 29 16 SSW 1017,3 18 8 0,0
18.06.2018 08:00:00 15,7 12,6 17,3 15,6 16,7 15,9 12 7 25 13 SSW 1017,2 12 59 0,0
18.06.2018 07:00:00 14,0 12,5 13,7 14,1 16,8 15,9 10 5 19 11 SSW 1017,2 10 56 0,0
18.06.2018 06:00:00 12,9 11,9 12,4 13,9 17,0 15,9 9 5 14 7 S 1017,4 12 0 0,0
18.06.2018 05:00:00 12,3 11,3 12,3 13,8 17,3 15,9 9 5 14 8 SSW 1017,4 10 0 0,0
18.06.2018 04:00:00 11,7 10,9 11,3 13,6 17,5 15,9 8 4 14 8 SW 1017,4 10 0 0,0
18.06.2018 03:00:00 11,7 10,8 10,7 13,9 17,9 15,9 8 4 14 7 SW 1017,9 11 0 0,0
18.06.2018 02:00:00 11,9 10,9 11,0 14,4 18,2 15,9 7 4 13 7 SW 1017,6 11 0 0,0
18.06.2018 01:00:00 12,3 10,9 11,3 14,9 18,5 15,9 7 4 14 8 WSW 1017,5 15 0 0,0
18.06.2018 00:00:00 12,8 11,2 12,1 15,5 18,8 15,9 8 4 13 7 SW 1017,4 16 0 0,0
17.06.2018 23:00:00 13,2 11,1 12,0 16,3 19,1 15,9 8 4 16 9 WSW 1017,2 19 0 0,0
17.06.2018 22:00:00 14,7 10,8 14,1 17,5 19,3 15,9 9 5 27 15 W 1017,1 27 18 0,0
17.06.2018 21:00:00 16,7 10,6 16,9 18,6 19,5 15,9 14 8 25 13 W 1016,5 34 48 0,0
17.06.2018 20:00:00 16,7 10,2 17,0 18,9 19,6 15,9 17 9 31 17 WSW 1016,3 37 6 0,0
17.06.2018 19:00:00 17,8 9,1 18,0 19,8 19,7 15,9 19 11 37 20 W 1015,9 43 43 0,0
17.06.2018 18:00:00 18,7 10,4 19,3 21,2 19,6 15,9 15 8 29 16 W 1015,7 40 18 0,0
17.06.2018 17:00:00 18,1 9,8 19,7 22,1 19,4 15,9 17 9 38 21 W 1015,5 40 18 0,0
17.06.2018 16:00:00 19,1 9,8 20,9 23,2 19,1 15,9 18 10 40 22 W 1014,8 40 45 0,0
17.06.2018 15:00:00 18,0 10,8 20,3 21,4 18,9 15,9 14 7 40 21 W 1014,5 40 1 0,0
17.06.2018 14:00:00 18,7 13,1 21,0 22,9 18,6 15,9 18 10 43 23 W 1013,9 25 26 0,0
17.06.2018 13:00:00 18,4 12,8 20,4 21,6 18,4 15,9 20 11 40 22 WSW 1013,5 25 19 0,0
17.06.2018 12:00:00 17,3 12,8 18,8 20,3 18,2 15,9 21 12 41 22 WSW 1013,2 30 0 0,0
17.06.2018 11:00:00 17,8 12,9 19,6 20,5 17,9 15,9 17 9 37 20 SW 1013,0 35 19 0,0
17.06.2018 10:00:00 18,1 12,8 20,6 21,6 17,6 15,9 19 10 32 18 SW 1012,8 30 50 0,0
17.06.2018 09:00:00 16,6 12,5 17,4 19,4 17,4 15,9 19 11 35 19 SW 1012,7 12 60 0,0
17.06.2018 08:00:00 15,3 13,0 15,5 16,6 17,5 15,9 10 6 24 13 SW 1012,6 10 26 0,0
17.06.2018 07:00:00 14,3 13,6 14,3 15,7 17,7 15,9 10 6 19 10 SW 1012,7 5 4 0,3
17.06.2018 06:00:00 13,4 12,9 12,9 15,3 17,9 15,9 8 5 13 7 SSW 1012,6 5 0 0,0
17.06.2018 05:00:00 13,5 12,9 13,4 15,7 18,1 15,9 9 5 13 7 SSW 1012,7 4,4 0 0,0
17.06.2018 04:00:00 13,5 12,9 13,5 16,0 18,3 15,9 8 4 12 7 S 1013,1 3,5 0 0,4
17.06.2018 03:00:00 13,6 12,9 13,5 16,2 18,5 15,9 9 5 20 11 SSW 1013,3 4,0 0 1,6
17.06.2018 02:00:00 14,5 13,5 14,3 16,8 18,7 15,9 11 6 23 12 W 1013,4 1,8 0 1,5
17.06.2018 01:00:00 15,0 13,7 14,8 17,1 18,9 15,9 5 3 7 4 WSW 1013,1 7 0 0,0
17.06.2018 00:00:00 15,0 14,0 14,4 17,4 19,2 15,9 5 3 7 4 SSW 1013,2 7 0 0,0
16.06.2018 23:00:00 15,9 14,4 15,0 18,2 19,3 15,9 6 3 8 4 SSW 1013,5 9 0 0,0
16.06.2018 22:00:00 16,8 14,1 16,2 19,2 19,4 15,9 4 2 6 3 SSW 1013,3 13 0 0,0
16.06.2018 21:00:00 18,0 14,8 17,3 20,1 19,5 15,9 4 2 10 5 WNW 1013,1 10 0 0,0
16.06.2018 20:00:00 18,3 15,5 17,9 20,8 19,4 15,9 5 3 17 9 NNW 1012,9 9 21 0,0
16.06.2018 19:00:00 19,6 16,3 19,3 21,6 19,3 15,9 12 6 26 14 WNW 1012,7 7 23 0,1
16.06.2018 18:00:00 19,9 16,5 20,6 22,0 19,1 15,9 4 2 9 5 E 1012,6 15 1 0,0
16.06.2018 17:00:00 19,3 16,6 19,3 22,0 18,8 15,9 4 2 15 8 ENE 1013,0 10 6 0,0
16.06.2018 16:00:00 19,0 16,7 20,1 21,7 18,7 15,9 9 5 20 11 E 1013,3 15 6 0,5
16.06.2018 15:00:00 16,7 15,2 16,7 19,7 18,3 15,9 12 7 21 12 E 1013,6 4,0 14 7,1
16.06.2018 14:00:00 18,0 15,3 19,4 20,7 18,2 15,9 13 7 31 17 NNE 1013,8 15 11 15,1
16.06.2018 13:00:00 17,1 15,1 16,6 20,5 18,0 15,9 17 9 27 14 NW 1014,6 5 1 0,9
16.06.2018 12:00:00 19,5 12,8 22,7 20,5 17,8 15,8 6 3 19 10 E 1014,8 25 0 0,0
16.06.2018 11:00:00 18,2 12,2 19,3 19,0 17,6 15,8 6 4 19 10 ESE 1015,1 25 0 0,0
16.06.2018 10:00:00 18,5 11,8 20,6 19,9 17,5 15,8 12 6 23 12 ESE 1015,2 25 13 0,0
16.06.2018 09:00:00 17,4 10,5 19,3 17,3 17,5 15,8 11 6 21 11 ESE 1015,3 30 0 0,0
16.06.2018 08:00:00 16,3 9,2 16,4 15,9 17,5 15,8 11 6 21 11 ESE 1015,6 35 0 0,0
16.06.2018 07:00:00 15,7 9,5 15,6 15,4 17,7 15,8 8 5 18 10 ESE 1016,0 30 0 0,0
16.06.2018 06:00:00 15,6 8,9 14,9 14,9 17,8 15,8 11 6 20 11 E 1016,1 30 0 0,0
16.06.2018 05:00:00 15,5 7,8 14,7 15,1 18,0 15,8 9 5 18 10 ESE 1016,6 51 0 0,0
16.06.2018 04:00:00 15,4 9,1 14,8 15,4 18,2 15,8 9 5 22 12 SSE 1017,2 38 0 0,0
16.06.2018 03:00:00 15,5 9,1 14,8 15,6 18,4 15,8 4 2 13 7 SSE 1017,2 32 0 0,0
16.06.2018 02:00:00 15,4 9,2 14,7 15,6 18,6 15,8 5 3 11 6 SE 1017,3 33 0 0,0
16.06.2018 01:00:00 15,3 9,5 14,7 15,4 18,9 15,8 6 4 11 6 SE 1017,2 36 0 0,0
16.06.2018 00:00:00 13,3 10,4 11,6 15,4 19,2 15,8 5 3 11 6 ESE 1017,3 27 0 0,0
15.06.2018 23:00:00 13,7 9,9 11,9 16,0 19,5 15,8 5 3 10 5 SE 1017,6 30 0 0,0
15.06.2018 22:00:00 14,8 9,1 12,0 17,0 19,9 15,8 4 2 5 3 N 1017,5 40 0 0,0
15.06.2018 21:00:00 16,9 8,6 14,5 18,1 20,2 15,8 5 3 11 6 W 1017,3 35 53 0,0
15.06.2018 20:00:00 18,6 7,5 16,8 19,1 20,4 15,8 7 4 19 10 WNW 1017,2 40 60 0,0
15.06.2018 19:00:00 19,6 7,0 18,3 20,4 20,6 15,8 8 4 26 14 W 1017,5 40 60 0,0
15.06.2018 18:00:00 20,5 8,8 19,5 22,1 20,7 15,8 10 6 28 15 WNW 1017,5 40 60 0,0
15.06.2018 17:00:00 20,5 8,9 21,1 24,4 20,5 15,8 15 8 26 14 WNW 1017,6 35 29 0,0
15.06.2018 16:00:00 20,4 8,8 22,1 26,7 20,0 15,8 16 9 32 17 W 1017,5 40 41 0,0
15.06.2018 15:00:00 20,9 9,1 26,9 26,3 19,5 15,8 14 7 28 15 WNW 1017,5 40 32 0,0
15.06.2018 14:00:00 21,2 8,6 28,0 27,0 19,0 15,8 11 6 23 13 W 1017,4 40 33 0,0
15.06.2018 13:00:00 18,9 8,4 21,7 25,6 18,4 15,8 13 7 23 12 WSW 1017,5 40 37 0,0
15.06.2018 12:00:00 19,0 8,2 21,9 26,6 17,8 15,8 10 5 23 13 WSW 1017,3 25 51 0,0
15.06.2018 11:00:00 19,3 9,8 24,1 24,2 17,3 15,8 9 5 24 13 W 1017,2 25 54 0,0
15.06.2018 10:00:00 18,0 10,5 19,7 22,0 16,9 15,8 9 5 18 10 WSW 1017,0 20 60 0,0
15.06.2018 09:00:00 16,5 12,5 17,4 18,7 16,7 15,8 8 4 18 10 W 1016,7 20 60 0,0
15.06.2018 08:00:00 14,0 11,7 14,6 14,2 16,9 15,8 7 4 10 6 SSW 1016,3 15 60 0,0
15.06.2018 07:00:00 11,7 10,9 11,3 12,7 17,2 15,8 6 4 11 6 SSW 1015,8 10 60 0,0
15.06.2018 06:00:00 10,5 10,2 9,8 12,3 17,5 15,8 6 4 10 5 SSW 1015,4 6 27 0,0
15.06.2018 05:00:00 9,9 9,7 8,1 12,6 17,9 15,8 5 3 9 5 SW 1014,7 9 0 0,0
15.06.2018 04:00:00 10,8 10,6 9,2 13,3 18,2 15,8 7 4 12 6 SW 1014,5 8 0 0,0
15.06.2018 03:00:00 11,5 11,2 10,0 14,1 18,5 15,8 6 3 11 6 SW 1014,2 4,9 0 0,0
15.06.2018 02:00:00 12,6 12,3 11,5 15,0 18,8 15,8 8 4 18 10 WSW 1014,0 6 0 0,0
15.06.2018 01:00:00 13,6 13,0 13,1 16,1 19,1 15,8 10 5 23 12 W 1013,8 7 0 0,0
15.06.2018 00:00:00 14,2 13,6 14,2 16,7 19,4 15,8 12 6 25 13 W 1013,2 8 0 0,0
14.06.2018 23:00:00 14,6 14,1 14,7 17,1 19,7 15,8 12 7 33 18 WSW 1012,8 8 0 0,2
14.06.2018 22:00:00 14,3 14,0 14,4 17,4 20,0 15,8 16 9 37 20 SW 1012,5 2,7 0 1,5
14.06.2018 21:00:00 15,0 13,6 14,8 18,6 20,4 15,9 17 9 35 19 SW 1012,0 10 0 0,3
14.06.2018 20:00:00 14,6 13,5 14,7 19,3 20,7 15,9 15 8 31 17 SW 1012,2 8 0 0,2
14.06.2018 19:00:00 14,8 13,6 15,0 20,4 20,9 15,9 14 8 43 23 WSW 1012,1 8 0 1,7
14.06.2018 18:00:00 17,2 11,5 16,1 23,4 20,9 15,9 23 12 47 26 WSW 1011,6 12 0 0,1
14.06.2018 17:00:00 21,0 8,8 22,4 26,4 20,6 15,9 23 12 46 25 SW 1010,8 25 0 0,0
14.06.2018 16:00:00 21,1 8,6 22,9 27,5 20,2 15,9 24 13 48 26 SW 1010,9 28 14 0,0
14.06.2018 15:00:00 21,0 8,8 24,1 28,3 19,6 15,9 27 15 48 26 SSW 1011,2 18 44 0,0
14.06.2018 14:00:00 21,2 8,8 25,4 27,7 18,9 15,9 29 15 48 26 SSW 1011,6 18 39 0,0
14.06.2018 13:00:00 20,9 9,2 25,2 28,4 18,2 15,9 23 13 42 23 SSW 1011,9 18 53 0,0
14.06.2018 12:00:00 20,0 10,0 23,5 27,4 17,5 15,9 21 12 38 21 SW 1012,3 20 59 0,0
14.06.2018 11:00:00 18,7 10,5 22,7 24,6 17,0 15,9 21 11 40 22 SSW 1012,6 20 57 0,0
14.06.2018 10:00:00 17,3 10,2 20,1 21,2 16,7 15,9 20 11 39 21 SSW 1012,8 12 47 0,0
14.06.2018 09:00:00 15,7 10,1 17,5 17,4 16,6 15,9 19 10 36 19 SSW 1012,9 15 34 0,0
14.06.2018 08:00:00 14,2 10,0 15,7 15,1 16,7 15,9 18 10 29 16 SSW 1013,1 15 43 0,0
14.06.2018 07:00:00 12,1 9,6 12,4 13,8 16,9 15,9 13 7 21 11 SSW 1013,6 20 5 0,0
14.06.2018 06:00:00 11,2 9,2 11,2 13,4 17,1 15,9 11 6 16 9 S 1013,8 20 0 0,0
14.06.2018 05:00:00 10,9 8,9 10,2 13,5 17,3 15,9 10 5 18 10 SSW 1013,8 23 0 0,0
14.06.2018 04:00:00 11,8 9,0 11,8 14,3 17,5 15,9 10 5 16 8 SSW 1014,1 29 0 0,0
14.06.2018 03:00:00 11,5 8,4 11,6 14,4 17,7 15,9 7 4 11 6 SSW 1014,3 30 0 0,0
14.06.2018 02:00:00 11,1 8,3 11,2 14,4 18,0 15,9 6 3 12 7 SW 1014,5 30 0 0,0
14.06.2018 01:00:00 10,8 7,9 10,5 14,3 18,3 15,9 6 3 11 6 SW 1014,3 32 0 0,0
14.06.2018 00:00:00 10,3 7,9 8,2 14,9 18,6 15,9 6 4 14 8 WSW 1014,8 29 0 0,0
13.06.2018 23:00:00 12,0 8,3 10,8 16,5 18,9 15,9 10 5 23 12 W 1014,8 32 0 0,0
13.06.2018 22:00:00 13,3 8,7 13,5 17,6 19,1 16,0 11 6 31 17 W 1014,6 31 0 0,0
13.06.2018 21:00:00 13,9 8,5 14,3 18,6 19,2 16,0 13 7 34 19 W 1014,1 30 0 0,0
13.06.2018 20:00:00 14,6 7,5 15,3 19,6 19,3 16,0 19 10 37 20 WNW 1013,8 30 1 0,0
13.06.2018 19:00:00 15,3 7,9 16,1 20,8 19,3 16,0 22 12 37 20 WNW 1013,3 30 16 0,0
13.06.2018 18:00:00 15,6 8,6 17,4 22,0 19,2 16,0 21 12 41 22 W 1013,2 30 9 0,0
13.06.2018 17:00:00 16,4 8,2 18,4 22,9 19,1 16,0 19 11 44 24 W 1012,8 30 6 0,0
13.06.2018 16:00:00 16,0 8,2 18,4 22,8 18,8 16,0 23 13 44 24 W 1012,7 30 1 0,0
13.06.2018 15:00:00 17,1 9,2 21,7 22,9 18,6 16,0 22 12 41 22 WNW 1012,5 30 4 0,0
13.06.2018 14:00:00 16,5 8,8 20,4 23,3 18,3 16,0 24 13 44 24 WNW 1012,5 30 2 0,0
13.06.2018 13:00:00 16,6 9,5 20,0 22,8 17,9 16,0 18 10 43 23 W 1012,2 30 5 0,0
13.06.2018 12:00:00 16,1 9,0 18,6 22,5 17,5 16,0 21 12 39 21 WNW 1012,1 30 4 0,0
13.06.2018 11:00:00 16,7 7,7 19,8 23,6 17,0 16,0 23 12 44 24 WNW 1011,7 30 38 0,0
13.06.2018 10:00:00 16,0 7,8 19,0 20,2 16,8 16,0 25 14 45 24 NW 1011,7 25 28 0,0
13.06.2018 09:00:00 14,8 8,3 16,3 18,3 16,7 16,0 21 11 36 19 NW 1011,4 25 34 0,0
13.06.2018 08:00:00 13,4 8,6 14,3 15,3 16,7 16,0 19 11 34 18 NW 1011,1 30 17 0,0
13.06.2018 07:00:00 12,5 9,0 12,2 14,5 16,8 16,1 11 6 22 12 NW 1011,0 28 1 0,0
13.06.2018 06:00:00 12,1 9,1 12,1 14,1 17,0 16,1 10 5 19 11 NW 1011,1 28 0 0,0
13.06.2018 05:00:00 11,8 9,9 11,6 14,2 17,2 16,1 6 3 16 9 WNW 1011,1 27 0 0,0
13.06.2018 04:00:00 11,8 9,8 11,3 14,4 17,3 16,1 9 5 16 9 WNW 1010,9 25 0 0,0
13.06.2018 03:00:00 11,7 10,4 11,7 14,6 17,5 16,1 10 6 21 11 W 1010,9 21 0 0,0
13.06.2018 02:00:00 11,6 10,9 11,8 14,8 17,7 16,1 13 7 23 12 WNW 1010,9 12 0 0,1
13.06.2018 01:00:00 11,6 11,0 11,9 15,0 17,9 16,1 16 9 26 14 WNW 1010,9 3,1 0 0,1
13.06.2018 00:00:00 11,8 11,1 12,0 15,4 18,1 16,1 11 6 22 12 W 1011,0 2,6 0 0,0
12.06.2018 23:00:00 12,2 10,7 12,4 15,8 18,3 16,1 11 6 21 12 W 1011,0 6 0 0,0
12.06.2018 22:00:00 12,4 10,6 12,3 16,3 18,5 16,1 14 7 29 16 WNW 1010,9 24 0 0,0
12.06.2018 21:00:00 13,4 10,3 13,7 17,2 18,6 16,1 10 6 30 16 WNW 1010,5 22 0 0,0
12.06.2018 20:00:00 13,8 9,9 14,3 18,0 18,7 16,1 17 9 32 18 WNW 1010,4 30 0 0,0
12.06.2018 19:00:00 13,9 10,2 14,7 18,9 18,7 16,1 20 11 33 18 WNW 1010,6 30 0 0,0
12.06.2018 18:00:00 15,6 11,0 17,8 19,9 18,7 16,1 17 9 34 18 WNW 1010,7 35 0 0,0
12.06.2018 17:00:00 15,3 10,0 16,5 20,0 18,6 16,1 18 10 31 17 WNW 1010,7 35 0 0,0
12.06.2018 16:00:00 15,8 10,2 17,4 20,8 18,4 16,1 15 8 30 16 WNW 1010,8 35 1 0,0
12.06.2018 15:00:00 16,4 10,3 19,6 20,3 18,3 16,1 18 10 36 19 W 1010,8 35 0 0,0

tt = Température de l'air
td = dewpoint
tt 5cm = Température de l'air 5cm
tt -5cm = Température de l'air -5cm
tt -20cm = Température de l'air -20cm
tt -100cm = Température de l'air -100cm
ff = Vitesse du vent
fx = gusts
dd = Direction du vent
ppp = reduced air pressure
vv = visibility
sd = Ensoleillement
rr = Quantités de précipitations

stations d'obs. à proximité